Location: *
(55.5817°S, 142.4781°W)
Time: 06:26:34
(UTC+00:00)

ACS3 Solar Sail - Pass Details

Date: 29 April 2025
Orbit: 933 x 1009 km, 97.5° (Epoch: 23 May)

Event Time Altitude Azimuth Distance (km) Brightness Sun altitude
Rises 15:28:26 0° 347° (NNW) 3,629 4.8 -11.9°
Reaches altitude 10° 15:31:03 10° 339° (NNW) 2,702 4.0 -11.5°
Maximum altitude 15:36:39 37° 272° (W) 1,475 2.3 -10.8°
Drops below altitude 10° 15:42:25 10° 205° (SSW) 2,781 3.8 -10.0°
Sets 15:45:10 0° 196° (SSW) 3,747 4.6 -9.6°
